Voltar ao catálogo

STARLINK-35987

AtivoComunicaçõesVLEO
NORAD 66860·PAYLOAD·🇺🇸 United States

Lançado Dec 2, 2025 de Cape Canaveral Space Force Station

Loading…

Próximas Passagens (próximas 24 horas)

TLE

AtualizadoSource: CelesTrak SupGP

Época: Sep 15, 2026, 02:47 UTC

1 66860C 25281N   26258.11645833  .00032770  00000+0  11873-2 0  2586
2 66860  43.0016 353.5177 0001496 270.9301 241.9039 15.27551872    17

Acompanhe STARLINK-35987 em tempo real com AllMySat

Download on the App Store